Date String (YYYY-MM-DD hh:mm:ss) UTC,Instrument flags,Ambient pressure (hPa),Sample flow (lpm),Bypass flow (lpm),Sample temperature (°C),Ambient temperature (°C),ASC tube jacket temperature (°C),LED temperature (°C),Box temperature (°C),Sample RH (%),Span deviation,Mass concentration (μg/m³),Mass concentration (μg/m³),Mass concentration (μg/m³)
DateTimeUTC,F1_M11,P_M11,Q1_M11,Q2_M11,T1_M11,T2_M11,T3_M11,T4_M11,T5_M11,U1_M11,ZSPAN_M11,X0_M11,X2_M11,X1_M11
2021-11-28 18:00:00,,0830.1,5.01,0.00,25.8,25.1,00.0,34.7,27.7,13.5,0000.0,0008.24,0002.58,0001.42
2021-11-28 18:01:00,,0830.1,4.99,0.00,25.8,25.1,00.0,34.7,27.7,13.6,0000.0,0008.35,0002.63,0001.44
2021-11-28 18:02:00,,0830.1,5.02,0.00,25.8,25.2,00.0,34.7,27.7,13.7,0000.0,0008.90,0002.71,0001.44
2021-11-28 18:03:00,,0830.1,4.99,0.00,25.8,25.2,00.0,34.7,27.8,13.6,0000.0,0008.56,0002.74,0001.45
2021-11-28 18:04:00,,0830.0,5.01,0.00,25.9,25.2,00.0,34.7,27.8,13.6,0000.0,0008.43,0002.76,0001.44
2021-11-28 18:05:00,,0829.9,4.99,0.00,25.9,25.2,00.0,34.8,27.8,13.6,0000.0,0008.55,0002.66,0001.42
2021-11-28 18:06:00,,0829.9,5.00,0.00,25.9,25.2,00.0,34.8,27.8,13.6,0000.0,0008.83,0002.62,0001.42
2021-11-28 18:07:00,,0829.9,5.00,0.00,26.0,25.3,00.0,34.8,27.8,13.5,0000.0,0008.77,0002.62,0001.44
2021-11-28 18:08:00,,0829.9,5.00,0.00,26.0,25.3,00.0,34.8,27.9,13.5,0000.0,0009.02,0002.68,0001.44
2021-11-28 18:09:00,,0829.9,4.99,0.00,26.0,25.3,00.0,34.8,27.9,13.5,0000.0,0009.33,0002.67,0001.45
2021-11-28 18:10:00,,0829.9,5.01,0.00,26.0,25.3,00.0,34.9,27.9,13.5,0000.0,0009.67,0002.69,0001.45
2021-11-28 18:11:00,,0829.9,5.00,0.00,26.0,25.3,00.0,34.9,27.9,13.5,0000.0,0009.67,0002.67,0001.45
2021-11-28 18:12:00,,0829.9,4.99,0.00,26.0,25.4,00.0,34.9,27.9,13.5,0000.0,0009.74,0002.63,0001.45
2021-11-28 18:13:00,,0829.8,5.01,0.00,26.1,25.4,00.0,34.9,28.0,13.5,0000.0,0010.10,0002.54,0001.45
2021-11-28 18:14:00,,0829.8,5.00,0.00,26.1,25.4,00.0,34.9,28.0,13.5,0000.0,0010.47,0002.52,0001.45
2021-11-28 18:15:00,,0829.8,5.00,0.00,26.1,25.5,00.0,35.0,28.0,13.4,0000.0,0010.72,0002.47,0001.45
2021-11-28 18:16:00,,0829.8,4.99,0.00,26.1,25.5,00.0,35.0,28.0,13.3,0000.0,0011.28,0002.45,0001.43
2021-11-28 18:17:00,,0829.8,5.02,0.00,26.1,25.5,00.0,35.0,28.0,13.1,0000.0,0011.14,0002.39,0001.41
2021-11-28 18:18:00,,0829.8,4.99,0.00,26.2,25.5,00.0,35.0,28.1,13.1,0000.0,0011.84,0002.31,0001.38
2021-11-28 18:19:00,,0829.8,5.00,0.00,26.2,25.5,00.0,35.0,28.1,12.9,0000.0,0011.93,0002.19,0001.34
2021-11-28 18:20:00,,0829.8,5.00,0.00,26.2,25.6,00.0,35.1,28.1,12.9,0000.0,0011.40,0002.12,0001.32
2021-11-28 18:21:00,,0829.7,5.02,0.00,26.2,25.6,00.0,35.1,28.1,12.9,0000.0,0010.74,0002.01,0001.27
2021-11-28 18:22:00,,0829.6,5.00,0.00,26.2,25.6,00.0,35.1,28.1,12.9,0000.0,0010.62,0001.93,0001.23
2021-11-28 18:23:00,,0829.8,4.99,0.00,26.3,25.6,00.0,35.1,28.2,12.9,0000.0,0010.37,0001.84,0001.20
2021-11-28 18:24:00,,0829.6,5.00,0.00,26.3,25.6,00.0,35.1,28.2,12.9,0000.0,0009.71,0001.80,0001.14
2021-11-28 18:25:00,,0829.7,5.01,0.00,26.3,25.6,00.0,35.2,28.2,12.9,0000.0,0009.30,0001.80,0001.10
2021-11-28 18:26:00,,0829.7,5.00,0.00,26.3,25.7,00.0,35.2,28.2,12.6,0000.0,0008.88,0001.79,0001.06
2021-11-28 18:27:00,,0829.8,5.00,0.00,26.3,25.7,00.0,35.2,28.2,12.3,0000.0,0008.35,0001.77,0001.02
2021-11-28 18:28:00,,0829.6,4.98,0.00,26.4,25.7,00.0,35.2,28.3,12.1,0000.0,0007.26,0001.71,0000.98
2021-11-28 18:29:00,,0829.6,5.01,0.00,26.4,25.7,00.0,35.2,28.3,12.2,0000.0,0006.50,0001.68,0000.93
2021-11-28 18:30:00,,0829.7,5.00,0.00,26.4,25.7,00.0,35.3,28.3,12.8,0000.0,0006.61,0001.69,0000.92
2021-11-28 18:31:00,,0829.7,4.99,0.00,26.4,25.8,00.0,35.3,28.3,12.8,0000.0,0007.11,0001.72,0000.92
2021-11-28 18:32:00,,0829.7,5.00,0.00,26.5,25.8,00.0,35.3,28.4,12.8,0000.0,0007.21,0001.71,0000.92
2021-11-28 18:33:00,,0829.9,5.00,0.00,26.5,25.8,00.0,35.3,28.4,12.9,0000.0,0007.17,0001.70,0000.92
2021-11-28 18:34:00,,0829.9,4.99,0.00,26.5,25.8,00.0,35.3,28.4,12.9,0000.0,0007.22,0001.73,0000.92
2021-11-28 18:35:00,,0829.6,4.99,0.00,26.5,25.8,00.0,35.4,28.4,12.9,0000.0,0007.46,0001.77,0000.93
2021-11-28 18:36:00,,0829.6,5.01,0.00,26.5,25.8,00.0,35.4,28.5,12.8,0000.0,0007.52,0001.74,0000.96
2021-11-28 18:37:00,,0829.6,4.99,0.00,26.6,25.9,00.0,35.4,28.4,12.8,0000.0,0007.86,0001.74,0000.97
2021-11-28 18:38:00,,0829.6,5.01,0.00,26.6,25.9,00.0,35.4,28.5,12.9,0000.0,0008.92,0001.84,0001.01
2021-11-28 18:39:00,,0829.6,5.00,0.00,26.6,25.9,00.0,35.4,28.5,12.8,0000.0,0009.46,0001.97,0001.04
2021-11-28 18:40:00,,0829.6,5.00,0.00,26.6,25.9,00.0,35.5,28.5,12.8,0000.0,0009.07,0002.06,0001.09
2021-11-28 18:41:00,,0829.6,5.00,0.00,26.6,25.9,00.0,35.5,28.5,12.8,0000.0,0008.72,0002.16,0001.12
2021-11-28 18:42:00,,0829.5,5.01,0.00,26.6,25.9,00.0,35.5,28.5,12.8,0000.0,0008.35,0002.16,0001.14
2021-11-28 18:43:00,,0829.6,5.00,0.00,26.6,26.0,00.0,35.5,28.5,12.8,0000.0,0008.77,0002.19,0001.16
2021-11-28 18:44:00,,0829.6,5.00,0.00,26.6,26.0,00.0,35.5,28.5,12.8,0000.0,0009.79,0002.27,0001.20
2021-11-28 18:45:00,,0829.5,4.99,0.00,26.7,26.0,00.0,35.6,28.5,12.7,0000.0,0010.44,0002.27,0001.23
2021-11-28 18:46:00,,0829.6,5.01,0.00,26.7,26.0,00.0,35.6,28.5,12.8,0000.0,0010.88,0002.32,0001.28
2021-11-28 18:47:00,,0829.6,4.99,0.00,26.7,26.0,00.0,35.6,28.6,12.8,0000.0,0010.59,0002.32,0001.29
2021-11-28 18:48:00,,0829.5,5.02,0.00,26.7,26.0,00.0,35.6,28.6,12.8,0000.0,0010.39,0002.36,0001.32
2021-11-28 18:49:00,,0829.5,4.99,0.00,26.7,26.0,00.0,35.6,28.6,12.8,0000.0,0009.54,0002.34,0001.36
2021-11-28 18:50:00,,0829.5,5.00,0.00,26.8,26.0,00.0,35.6,28.7,12.7,0000.0,0009.73,0002.31,0001.38
2021-11-28 18:51:00,,0829.5,5.02,0.00,26.8,26.0,00.0,35.6,28.7,12.7,0000.0,0009.79,0002.33,0001.40
2021-11-28 18:52:00,,0829.5,5.00,0.00,26.8,26.1,00.0,35.7,28.7,12.7,0000.0,0010.66,0002.30,0001.42
2021-11-28 18:53:00,,0829.5,5.00,0.00,26.8,26.1,00.0,35.7,28.7,12.7,0000.0,0010.98,0002.28,0001.42
2021-11-28 18:54:00,,0829.5,5.00,0.00,26.9,26.1,00.0,35.7,28.7,12.7,0000.0,0010.54,0002.30,0001.42
2021-11-28 18:55:00,,0829.5,5.00,0.00,26.9,26.1,00.0,35.7,28.7,12.7,0000.0,0010.50,0002.31,0001.42
2021-11-28 18:56:00,,0829.6,4.99,0.00,26.9,26.1,00.0,35.7,28.8,12.6,0000.0,0010.30,0002.36,0001.43
2021-11-28 18:57:00,,0829.6,5.01,0.00,26.9,26.2,00.0,35.8,28.8,12.6,0000.0,0009.84,0002.33,0001.44
2021-11-28 18:58:00,,0829.6,5.00,0.00,26.9,26.2,00.0,35.8,28.8,12.5,0000.0,0009.94,0002.41,0001.47
2021-11-28 18:59:00,,0829.6,5.00,0.00,26.9,26.2,00.0,35.8,28.8,12.5,0000.0,0010.89,0002.51,0001.48
